Hobart, OK

9:16 AM CDT on March 26, 2017 (GMT -0500)
Hobart Municipal

Weather History for KHBR - October, 2012

Change the Weather History Date:

Friday, October 5, 2012

  Actual Average Record
Temperature  
Mean Temperature 57 °F -  
Max Temperature 64 °F 75 °F 91 °F (2007)
Min Temperature 48 °F 53 °F 42 °F (2001)
Degree Days  
Heating Degree Days 8    
Growing Degree Days 7 (Base 50)    
Moisture  
Dew Point 42 °F    
Average Humidity 58    
Maximum Humidity 67    
Minimum Humidity 44    
Precipitation  
Precipitation 0.00 in - - ()
Sea Level Pressure  
Sea Level Pressure 30.16 in    
Wind  
Wind Speed 15 mph (NE)    
Max Wind Speed 21 mph    
Max Gust Speed 28 mph    
Visibility 10 miles    
Events      
Averages and records for this station are not official NWS values.
T = Trace of Precipitation, MM = Missing Value Source: NWS Daily Summary

Daily Weather History Graph

Daily Weather History Graph

Search for Another Location

Airport or City:

Trip Planner

Search our weather history database for the weather conditions in past years. The results will help you decide how hot, cold, wet, or windy it might be!

Date:

Astronomy

Oct. 05, 2012 Rise Set
Actual Time 7:34 AM CDT 7:13 PM CDT
Civil Twilight 7:09 AM CDT 7:39 PM CDT
Nautical Twilight 6:39 AM CDT 8:08 PM CDT
Astronomical Twilight 6:10 AM CDT 8:37 PM CDT
Moon 10:49 PM CDT (10/5) 12:32 PM CDT (10/5)
Length of Visible Light 12h 29m
Length of Day
11h 39m
Waning Gibbous, 74% of the Moon is Illuminated
Oct 5
Waning Gibbous
Oct 8
Last Quarter
Oct 15
New
Oct 21
First Quarter
Oct 29
Full

Hourly Weather History & Observations

Time (CDT) Temp. Dew Point Humidity Pressure Visibility Wind Dir Wind Speed Gust Speed Precip Events Conditions
12:53 AM 57.9 °F 43.0 °F 58% 30.17 in 10.0 mi NE 11.5 mph - N/A   Overcast
1:53 AM 57.0 °F 43.0 °F 59% 30.17 in 10.0 mi NE 17.3 mph - N/A   Overcast
2:53 AM 55.4 °F 42.8 °F 63% 30.18 in 10.0 mi NE 18.4 mph - N/A   Overcast
3:53 AM 55.0 °F 42.1 °F 62% 30.15 in 10.0 mi NE 11.5 mph - N/A   Overcast
4:53 AM 54.0 °F 39.9 °F 59% 30.14 in 10.0 mi NE 13.8 mph - N/A   Overcast
5:53 AM 54.0 °F 41.0 °F 62% 30.14 in 10.0 mi NE 12.7 mph - N/A   Overcast
6:53 AM 54.0 °F 41.0 °F 62% 30.15 in 10.0 mi NE 12.7 mph - N/A   Overcast
7:53 AM 53.1 °F 41.0 °F 64% 30.16 in 10.0 mi NE 11.5 mph - N/A   Overcast
8:19 AM 53.6 °F 42.8 °F 67% 30.17 in 10.0 mi NE 10.4 mph - N/A   Mostly Cloudy
8:43 AM 53.6 °F 42.8 °F 67% 30.17 in 10.0 mi ENE 15.0 mph - N/A   Overcast
8:53 AM 54.0 °F 42.1 °F 64% 30.16 in 10.0 mi NE 16.1 mph - N/A   Overcast
9:22 AM 55.4 °F 42.8 °F 63% 30.18 in 10.0 mi ENE 17.3 mph - N/A   Overcast
9:53 AM 55.0 °F 42.1 °F 62% 30.17 in 10.0 mi ENE 19.6 mph - N/A   Overcast
10:01 AM 55.4 °F 42.8 °F 63% 30.18 in 10.0 mi ENE 19.6 mph - N/A   Overcast
10:53 AM 55.9 °F 43.0 °F 62% 30.17 in 10.0 mi ENE 16.1 mph - N/A   Overcast
11:53 AM 57.0 °F 44.1 °F 62% 30.17 in 10.0 mi ENE 11.5 mph - N/A   Overcast
12:53 PM 59.0 °F 45.0 °F 60% 30.16 in 10.0 mi NE 15.0 mph 23.0 mph N/A   Overcast
1:53 PM 61.0 °F 45.0 °F 56% 30.15 in 10.0 mi NE 13.8 mph - N/A   Overcast
2:03 PM 60.8 °F 44.6 °F 55% 30.16 in 10.0 mi NE 15.0 mph - N/A   Overcast
2:53 PM 64.0 °F 44.1 °F 48% 30.12 in 10.0 mi NE 13.8 mph 24.2 mph N/A   Scattered Clouds
3:53 PM 64.9 °F 43.0 °F 45% 30.11 in 10.0 mi NE 19.6 mph - N/A   Clear
4:53 PM 64.0 °F 43.0 °F 46% 30.10 in 10.0 mi ENE 18.4 mph 27.6 mph N/A   Clear
5:53 PM 62.1 °F 39.9 °F 44% 30.12 in 10.0 mi ENE 20.7 mph - N/A   Clear
6:53 PM 57.9 °F 39.0 °F 49% 30.14 in 10.0 mi NE 18.4 mph - N/A   Clear
7:53 PM 55.4 °F 37.4 °F 51% 30.18 in 10.0 mi NE 17.3 mph - N/A   Clear
8:53 PM 54.0 °F 37.0 °F 53% 30.19 in 10.0 mi ENE 17.3 mph - N/A   Clear
9:53 PM 52.0 °F 37.0 °F 57% 30.21 in 10.0 mi ENE 13.8 mph - N/A   Clear
10:53 PM 50.0 °F 37.0 °F 61% 30.22 in 10.0 mi ENE 12.7 mph - N/A   Clear
11:53 PM 48.9 °F 36.0 °F 61% 30.22 in 10.0 mi NE 17.3 mph - N/A   Clear